Location: Friaudour
(46.0460°N, 1.2873°E)
Time: 08:50:16
(UTC+00:00)

COSMOS 2406 - Pass Details

Date: 14 July 2020
Orbit: 844 x 862 km, 71.0° (Epoch: 14 August)

Event Time Altitude Azimuth Distance (km) Brightness Sun altitude
Exits shadow 02:31:39 18° 240° (WSW) 2,014 4.6 -14.2°
Maximum altitude 02:35:40 43° 304° (NW) 1,205 4.0 -13.8°
Drops below altitude 10° 02:41:08 10° 16° (NNE) 2,509 6.8 -13.2°
Sets 02:43:45 0° 23° (NNE) 3,447 8.0 -12.9°
